User: anonymous   Login
Location: Batang Balui
(2.7000°N, 113.7833°E)
Time: 23:49:59
(UTC+00:00)
Language:

Aurora 2 Rocket - Orbit

View from above orbital plane
View from above orbital plane
View from above satellite
View from above satellite

Ground track
Ground track

The orbit data is extracted from the following two-line orbital elements,

1 21393U 91037B   24176.53093216  .00005030  00000-0  36461-3 0  9998
2 21393  24.9749 216.9252 0842568  61.8875 306.4198 13.67275318598961
Epoch (UTC): 24 June 2024 12:44:32
Eccentricity: 0.0842568
inclination: 24.9749°
perigee height: 387 km
apogee height: 1632 km
right ascension of ascending node: 216.9252°
argument of perigee: 61.8875°
revolutions per day: 13.67275318
mean anomaly at epoch: 306.4198°
orbit number at epoch: 59896

The dashed part of the orbit path shows where the satellite is in the earth's shadow,  

DLR